sat.trackr.live / text

‹ back to catalog

STARLINK-36815

NORAD 68313 · 2026-057V

PAYLOAD ACTIVE UNKNOWN

§ Identity

Operator
Country
US
Launch date
2026-03-20
Launch site
AFWTR
Launch vehicle
Mass (kg)
RCS (m²)

Purposes: comms

External: N2YO · Heavens-Above · Gunter

§ Orbital elements

Epoch: 2026-09-20T01:54:18.012096Z

Period
93.91 min
Inclination
97.2847°
Eccentricity
0.0000252
Mean motion
15.33453749 rev/d
Perigee alt
465.3 km
Apogee alt
465.7 km
Semi-major
6,843.7 km
B*
5.3176e-4
RAAN
28.5532°
Arg perigee
122.8354°
Mean anomaly
237.2913°
Rev number
2,845

§ Raw data

STARLINK-368151 68313U 26057V   26263.07937514  .00017136  00000+0  53176-3 0  99982 68313  97.2847  28.5532 0000252 122.8354 237.2913 15.33453749 28459

JSON: /api/v1/satellites/68313 · /tle

For live sub-satellite position, see the globe view (requires WebGL).

§ Visibility from observer

Set your observer location to see the next 7 days of passes ≥ 10°. The values pass through the URL so the page stays shareable.

No JS? Fill the form by hand. The geolocation button needs JavaScript.